Location: Coffee Ditch
(40.9640°N, 122.7500°W)
Time: 15:18:34
(UTC+00:00)

SKYMED 2 - Pass Details

Date: 08 September 2024
Orbit: 621 x 623 km, 97.9° (Epoch: 08 October)

Event Time Altitude Azimuth Distance (km) Brightness Sun altitude
Rises 13:04:31 0° 155° (SSE) 2,896 7.1 -8.4°
Reaches altitude 10° 13:06:43 10° 151° (SSE) 1,994 6.4 -8.0°
Maximum altitude 13:10:58 56° 74° (ENE) 743 4.4 -7.2°
Drops below altitude 10° 13:15:15 10° 356° (N) 2,007 6.3 -6.4°
Sets 13:17:28 0° 352° (N) 2,918 7.1 -6.0°
